Altoona, PA

1:52 PM EDT on August 18, 2019 (GMT -0400)
Altoona-Blair County

Weather History for KAOO - May, 2019

Change the Weather History Date:

Wednesday, May 8, 2019

  Actual Average Record
Temperature  
Mean Temperature 62 °F 56 °F  
Max Temperature 73 °F 67 °F 84 °F (2015)
Min Temperature 51 °F 45 °F 30 °F (1974)
Degree Days  
Heating Degree Days 3 10  
Month to date heating degree days 22 84  
Since 1 July heating degree days 5576 6002  
Cooling Degree Days 0 0  
Month to date cooling degree days 8 0  
Year to date cooling degree days 8 6  
Growing Degree Days 12 (Base 50)    
Moisture  
Dew Point 50 °F    
Average Humidity 67    
Maximum Humidity 89    
Minimum Humidity 44    
Precipitation  
Precipitation 0.00 in 0.11 in 2.80 in (1960)
Month to date precipitation 1.89 0.91  
Year to date precipitation 14.70 11.38  
Sea Level Pressure  
Sea Level Pressure 30.18 in    
Wind  
Wind Speed 7 mph (ENE)    
Max Wind Speed 14 mph    
Max Gust Speed 17 mph    
Visibility 10 miles    
Events      
T = Trace of Precipitation, MM = Missing Value Source: NWS Daily Summary

Daily Weather History Graph

Daily Weather History Graph

Search for Another Location

Airport or City:

Astronomy

May. 08, 2019 Rise Set
Actual Time 6:04 AM EDT 8:15 PM EDT
Civil Twilight 5:34 AM EDT 8:45 PM EDT
Nautical Twilight 4:57 AM EDT 9:22 PM EDT
Astronomical Twilight 4:17 AM EDT 10:03 PM EDT
Moon 8:59 AM EDT (5/8) No Moon Set
Length of Visible Light 15h 11m
Length of Day
14h 10m
Waxing Crescent, 15% of the Moon is Illuminated
May 8
Waxing Crescent
May 11
First Quarter
May 18
Full
May 26
Last Quarter
Jun 3
New

Hourly Weather History & Observations

Time (EDT) Temp. Dew Point Humidity Pressure Visibility Wind Dir Wind Speed Gust Speed Precip Events Conditions
12:53 AM 60.1 °F 53.1 °F 78% 30.15 in 10.0 mi NNE 10.4 mph - N/A   Scattered Clouds
1:53 AM 59.0 °F 52.0 °F 78% 30.16 in 10.0 mi NE 4.6 mph - N/A   Clear
2:53 AM 55.9 °F 52.0 °F 87% 30.15 in 10.0 mi NNE 6.9 mph - N/A   Clear
3:53 AM 54.0 °F 50.0 °F 86% 30.15 in 10.0 mi NNE 8.1 mph - N/A   Clear
4:53 AM 53.1 °F 48.9 °F 86% 30.16 in 10.0 mi NNE 6.9 mph - N/A   Overcast
5:29 AM 53.1 °F 48.9 °F 86% 30.18 in 10.0 mi NNE 9.2 mph - N/A   Mostly Cloudy
5:53 AM 52.0 °F 48.0 °F 86% 30.17 in 10.0 mi NNE 8.1 mph - N/A   Mostly Cloudy
6:18 AM 52.0 °F 46.9 °F 83% 30.20 in 10.0 mi NNE 6.9 mph - N/A   Mostly Cloudy
6:33 AM 51.1 °F 46.9 °F 86% 30.21 in 10.0 mi NNE 8.1 mph - N/A   Scattered Clouds
6:53 AM 51.1 °F 46.9 °F 86% 30.21 in 10.0 mi NNE 5.8 mph - N/A   Partly Cloudy
7:53 AM 54.0 °F 46.9 °F 77% 30.22 in 10.0 mi North 8.1 mph - N/A   Partly Cloudy
8:53 AM 54.0 °F 46.9 °F 77% 30.24 in 10.0 mi North 10.4 mph - N/A   Overcast
9:53 AM 57.9 °F 46.0 °F 65% 30.23 in 10.0 mi NE 5.8 mph - N/A   Scattered Clouds
10:53 AM 62.1 °F 46.0 °F 56% 30.23 in 10.0 mi NE 9.2 mph - N/A   Clear
11:53 AM 64.0 °F 45.0 °F 50% 30.22 in 10.0 mi NE 5.8 mph - N/A   Scattered Clouds
12:53 PM 66.0 °F 46.9 °F 50% 30.19 in 10.0 mi NE 8.1 mph - N/A   Clear
1:53 PM 70.0 °F 48.9 °F 47% 30.18 in 10.0 mi East 5.8 mph - N/A   Clear
2:53 PM 71.1 °F 48.0 °F 44% 30.17 in 10.0 mi East 6.9 mph - N/A   Clear
3:53 PM 72.0 °F 50.0 °F 46% 30.15 in 10.0 mi NE 6.9 mph - N/A   Clear
4:53 PM 72.0 °F 50.0 °F 46% 30.14 in 10.0 mi ENE 8.1 mph - N/A   Clear
5:53 PM 71.1 °F 48.9 °F 45% 30.14 in 10.0 mi ENE 11.5 mph - N/A   Clear
6:53 PM 69.1 °F 50.0 °F 51% 30.14 in 10.0 mi East 8.1 mph - N/A   Partly Cloudy
7:53 PM 66.9 °F 53.1 °F 61% 30.14 in 10.0 mi ESE 9.2 mph - N/A   Partly Cloudy
8:53 PM 64.0 °F 53.1 °F 67% 30.17 in 10.0 mi SE 5.8 mph - N/A   Clear
9:53 PM 63.0 °F 54.0 °F 72% 30.18 in 10.0 mi ESE 8.1 mph - N/A   Clear
10:53 PM 61.0 °F 55.0 °F 81% 30.18 in 10.0 mi ESE 5.8 mph - N/A   Partly Cloudy
11:27 PM 62.1 °F 55.0 °F 78% 30.19 in 10.0 mi SE 6.9 mph - N/A   Overcast
11:53 PM 62.1 °F 55.0 °F 78% 30.18 in 10.0 mi SE 8.1 mph - N/A   Overcast